• En España
  • Lista de países
  • Para 7 días
  • Temperatura del agua
  • Mapa Satelital
  • El tiempo en el mapa
  • Informadores
  • user-avatar
    Iniciar sesión

    Tiempo cada hora Brčko

    Hoy, 19 Septiembre, Miércoles

    Tiempo Temperatura Precipitaciones Viento Presión Humedad
    00:00 +19°C° 0 mm 1 mps 756 mmHg 65%
    01:00 +19°C° 0 mm 1 mps 756 mmHg 66%
    02:00 +18°C° 0 mm 1 mps 756 mmHg 67%
    03:00 +18°C° 0 mm 1 mps 756 mmHg 69%
    04:00 +18°C° 0 mm 1 mps 756 mmHg 70%
    05:00 +19°C° 0 mm 1 mps 756 mmHg 66%
    06:00 +20°C° 0 mm 1 mps 757 mmHg 63%
    07:00 +21°C° 0 mm 1 mps 757 mmHg 54%
    08:00 +24°C° 0 mm 1 mps 757 mmHg 48%
    09:00 +26°C° 0 mm 1 mps 757 mmHg 42%
    10:00 +29°C° 0 mm 1 mps 757 mmHg 36%
    11:00 +30°C° 0 mm 1 mps 757 mmHg 34%
    12:00 +31°C° 0 mm 1 mps 756 mmHg 32%
    13:00 +32°C° 0 mm 1 mps 756 mmHg 29%
    14:00 +31°C° 0 mm 1 mps 756 mmHg 30%
    15:00 +31°C° 0 mm 1 mps 756 mmHg 30%
    16:00 +31°C° 0 mm 1 mps 756 mmHg 30%
    17:00 +28°C° 0 mm 1 mps 756 mmHg 36%
    18:00 +26°C° 0 mm 1 mps 756 mmHg 43%
    19:00 +23°C° 0 mm 1 mps 756 mmHg 49%
    20:00 +22°C° 0 mm 1 mps 756 mmHg 52%
    21:00 +22°C° 0 mm 1 mps 757 mmHg 55%
    22:00 +21°C° 0 mm 1 mps 757 mmHg 58%
    23:00 +20°C° 0 mm 1 mps 757 mmHg 60%

    Mañana, 20 Septiembre, Jueves

    Tiempo Temperatura Precipitaciones Viento Presión Humedad
    00:00 +20°C° 0 mm 1 mps 757 mmHg 62%
    01:00 +19°C° 0 mm 1 mps 757 mmHg 64%
    02:00 +19°C° 0 mm 1 mps 757 mmHg 65%
    03:00 +19°C° 0 mm 1 mps 757 mmHg 66%
    04:00 +18°C° 0 mm 1 mps 757 mmHg 68%
    05:00 +19°C° 0 mm 1 mps 757 mmHg 65%
    06:00 +20°C° 0 mm 1 mps 757 mmHg 61%
    07:00 +19°C° 0 mm 0 mps 757 mmHg 58%
    08:00 +24°C° 0 mm 1 mps 757 mmHg 52%
    09:00 +26°C° 0 mm 1 mps 757 mmHg 45%
    10:00 +28°C° 0 mm 1 mps 757 mmHg 38%
    11:00 +29°C° 0 mm 1 mps 757 mmHg 36%
    12:00 +30°C° 0 mm 1 mps 756 mmHg 33%
    13:00 +31°C° 0 mm 2 mps 756 mmHg 30%
    14:00 +31°C° 0 mm 2 mps 756 mmHg 31%
    15:00 +31°C° 0 mm 2 mps 756 mmHg 31%
    16:00 +30°C° 0 mm 2 mps 755 mmHg 31%
    17:00 +28°C° 0 mm 2 mps 755 mmHg 36%
    18:00 +26°C° 0 mm 2 mps 755 mmHg 40%
    19:00 +23°C° 0 mm 1 mps 756 mmHg 44%
    20:00 +23°C° 0 mm 1 mps 756 mmHg 46%
    21:00 +22°C° 0 mm 1 mps 756 mmHg 49%
    22:00 +21°C° 0 mm 1 mps 756 mmHg 51%
    23:00 +21°C° 0 mm 1 mps 756 mmHg 54%

    Pasado mañana, 21 Septiembre, Viernes

    Tiempo Temperatura Precipitaciones Viento Presión Humedad
    00:00 +20°C° 0 mm 1 mps 755 mmHg 56%
    01:00 +19°C° 0 mm 1 mps 755 mmHg 59%
    02:00 +19°C° 0 mm 1 mps 755 mmHg 61%
    03:00 +19°C° 0 mm 1 mps 755 mmHg 64%
    04:00 +18°C° 0 mm 1 mps 755 mmHg 66%
    05:00 +19°C° 0 mm 1 mps 755 mmHg 64%
    06:00 +20°C° 0 mm 1 mps 755 mmHg 61%
    07:00 +21°C° 0 mm 1 mps 755 mmHg 58%
    08:00 +24°C° 0 mm 1 mps 755 mmHg 51%
    09:00 +27°C° 0 mm 1 mps 755 mmHg 44%
    10:00 +29°C° 0 mm 1 mps 755 mmHg 36%
    11:00 +30°C° 0 mm 1 mps 755 mmHg 34%
    12:00 +32°C° 0 mm 1 mps 754 mmHg 32%
    13:00 +33°C° 0 mm 1 mps 754 mmHg 30%
    14:00 +32°C° 0 mm 1 mps 753 mmHg 31%
    15:00 +32°C° 0 mm 1 mps 753 mmHg 32%
    16:00 +32°C° 0 mm 1 mps 753 mmHg 33%
    17:00 +29°C° 0 mm 1 mps 753 mmHg 39%
    18:00 +27°C° 0 mm 1 mps 753 mmHg 45%
    19:00 +25°C° 0 mm 1 mps 754 mmHg 50%
    20:00 +24°C° 0 mm 1 mps 754 mmHg 53%
    21:00 +23°C° 0 mm 1 mps 754 mmHg 55%
    22:00 +22°C° 0 mm 1 mps 755 mmHg 58%
    23:00 +22°C° 0 mm 1 mps 755 mmHg 60%

    22 Septiembre, Sábado

    Tiempo Temperatura Precipitaciones Viento Presión Humedad
    00:00 +22°C° 0 mm 1 mps 755 mmHg 62%
    01:00 +21°C° 0 mm 1 mps 755 mmHg 64%
    02:00 +21°C° 0 mm 1 mps 755 mmHg 67%
    03:00 +21°C° 0 mm 1 mps 755 mmHg 69%
    04:00 +20°C° 0 mm 1 mps 755 mmHg 71%
    05:00 +21°C° 0 mm 1 mps 755 mmHg 69%
    06:00 +22°C° 0 mm 1 mps 755 mmHg 67%
    07:00 +23°C° 0 mm 1 mps 755 mmHg 65%
    08:00 +25°C° 0 mm 2 mps 755 mmHg 59%
    09:00 +27°C° 0 mm 2 mps 756 mmHg 53%
    10:00 +29°C° 0 mm 2 mps 756 mmHg 47%
    11:00 +30°C° 0 mm 2 mps 756 mmHg 45%
    12:00 +30°C° 0 mm 2 mps 755 mmHg 43%
    13:00 +31°C° 0 mm 2 mps 755 mmHg 41%
    14:00 +30°C° 0 mm 3 mps 755 mmHg 42%
    15:00 +28°C° 0 mm 4 mps 755 mmHg 43%
    16:00 +27°C° 0 mm 5 mps 756 mmHg 44%
    17:00 +25°C° 0 mm 5 mps 756 mmHg 44%
    18:00 +22°C° 0 mm 4 mps 757 mmHg 44%
    19:00 +20°C° 0 mm 4 mps 758 mmHg 44%
    20:00 +19°C° 0 mm 3 mps 758 mmHg 44%
    21:00 +18°C° 0 mm 3 mps 759 mmHg 44%
    22:00 +17°C° 0 mm 2 mps 760 mmHg 45%
    23:00 +17°C° 0 mm 2 mps 760 mmHg 45%

    23 Septiembre, Domingo

    Tiempo Temperatura Precipitaciones Viento Presión Humedad
    00:00 +16°C° 0 mm 1 mps 760 mmHg 46%
    01:00 +16°C° 0 mm 1 mps 760 mmHg 46%
    02:00 +15°C° 0 mm 1 mps 760 mmHg 48%
    03:00 +14°C° 0 mm 1 mps 760 mmHg 49%
    04:00 +14°C° 0 mm 1 mps 760 mmHg 51%
    05:00 +13°C° 0 mm 0 mps 760 mmHg 49%
    06:00 +14°C° 0 mm 0 mps 760 mmHg 48%
    07:00 +15°C° 0 mm 0 mps 760 mmHg 46%
    08:00 +19°C° 0 mm 1 mps 759 mmHg 41%
    09:00 +20°C° 0 mm 2 mps 759 mmHg 36%
    10:00 +24°C° 0 mm 2 mps 759 mmHg 31%
    11:00 +25°C° 0 mm 2 mps 758 mmHg 31%
    12:00 +27°C° 0 mm 2 mps 757 mmHg 30%
    13:00 +28°C° 0 mm 2 mps 757 mmHg 30%
    14:00 +28°C° 0 mm 2 mps 756 mmHg 31%
    15:00 +28°C° 0 mm 2 mps 756 mmHg 32%
    16:00 +29°C° 0 mm 2 mps 755 mmHg 33%
    17:00 +26°C° 0 mm 2 mps 755 mmHg 39%
    18:00 +24°C° 0 mm 2 mps 755 mmHg 44%
    19:00 +21°C° 0 mm 2 mps 754 mmHg 49%
    20:00 +21°C° 0 mm 2 mps 754 mmHg 52%
    21:00 +20°C° 0 mm 2 mps 753 mmHg 54%
    22:00 +20°C° 0 mm 2 mps 753 mmHg 57%
    23:00 +20°C° 0 mm 2 mps 752 mmHg 60%

    24 Septiembre, Lunes

    Tiempo Temperatura Precipitaciones Viento Presión Humedad
    00:00 +20°C° 0 mm 2 mps 751 mmHg 63%
    01:00 +19°C° 0 mm 3 mps 751 mmHg 66%
    02:00 +19°C° 0 mm 3 mps 750 mmHg 68%
    03:00 +19°C° 0 mm 3 mps 749 mmHg 69%
    04:00 +19°C° 0 mm 3 mps 748 mmHg 71%
    05:00 +20°C° 0 mm 3 mps 748 mmHg 67%
    06:00 +21°C° 0 mm 2 mps 748 mmHg 64%
    07:00 +23°C° 0 mm 2 mps 748 mmHg 61%
    08:00 +21°C° 0.4 mm 4 mps 749 mmHg 63%
    09:00 +19°C° 0.4 mm 6 mps 751 mmHg 65%
    10:00 +17°C° 0.4 mm 8 mps 752 mmHg 67%
    11:00 +15°C° 0.3 mm 6 mps 753 mmHg 71%
    12:00 +14°C° 0.3 mm 5 mps 755 mmHg 76%
    13:00 +12°C° 0.3 mm 3 mps 756 mmHg 80%
    14:00 +13°C° 0 mm 3 mps 757 mmHg 76%
    15:00 +14°C° 0 mm 3 mps 757 mmHg 71%
    16:00 +16°C° 0 mm 3 mps 757 mmHg 67%
    17:00 +15°C° 0 mm 2 mps 758 mmHg 69%
    18:00 +14°C° 0 mm 2 mps 758 mmHg 71%
    19:00 +13°C° 0 mm 2 mps 758 mmHg 72%
    20:00 +13°C° 0 mm 2 mps 759 mmHg 72%
    21:00 +12°C° 0 mm 2 mps 759 mmHg 72%
    22:00 +10°C° 0 mm 2 mps 760 mmHg 72%
    23:00 +10°C° 0 mm 2 mps 760 mmHg 72%
    Mostrar más